Location: Dal�� Lhota
(48.7500°N, 14.0167°E)
Time: 09:20:01
(UTC+00:00)

Explorer 7 - Pass Details

Date: 05 August 2021
Orbit: 484 x 676 km, 50.3° (Epoch: 21 September)

Event Time Altitude Azimuth Distance (km) Brightness Sun altitude
Rises 02:12:58 0° 211° (SSW) 2,534 - -12.8°
Reaches altitude 10° 02:15:23 10° 198° (SSW) 1,660 - -12.5°
Exits shadow 02:16:12 15° 189° (S) 1,407 8.4 -12.4°
Maximum altitude 02:18:26 24° 143° (SE) 1,050 8.2 -12.1°
Drops below altitude 10° 02:21:33 10° 88° (E) 1,702 10.1 -11.8°
Sets 02:24:03 0° 74° (ENE) 2,614 11.5 -11.5°
